Location: Joplin, MO
(37.0842°N, 94.5133°W)
Time: 21:25:54
(UTC+02:00)

Transit 2A Rocket - Pass Details

Date: 31 March 2023
Orbit: 584 x 914 km, 66.7° (Epoch: 09 June)

Event Time Altitude Azimuth Distance (km) Brightness Sun altitude
Rises 01:26:25 0° 347° (NNW) 3,554 8.5 13.6°
Reaches altitude 10° 01:30:39 10° 14° (NNE) 2,599 7.6 12.7°
Maximum altitude 01:33:18 13° 40° (NE) 2,372 7.2 12.2°
Drops below altitude 10° 01:35:55 10° 67° (ENE) 2,552 7.2 11.7°
Sets 01:39:58 0° 94° (E) 3,432 7.7 10.9°
